Погода в Крайстчерче

Новая Зеландия     43°31′06″S   172°38′17″E
темп.,
°C
ветер,
м/с
пор.,
м/с
влажн.,
%
обл.,
%
осадки,
мм/ч
давл.,
гПа
погр.,
м
9 марта, вт
вт901:00+13с467160 0.0 1015513
04:00+13ссв467033 0.0 1014466
07:00+12ссв347217 0.0 1015333
10:00+14св346457 0.0 1015380
13:00+16всв566361 0.0 1014438
16:00+17в796867 0.0 1012487
19:00+16в6107378 0.0 1011599
22:00+16всв578296 0.0 1011388
10 марта, ср
ср1001:00+15ссв128298 0.0 100968
04:00+15зсз3474100 0.0 1007156
07:00+15ссз1360100 0.0 1006150
10:00+17с1260100 0.0 1006204
13:00+16юз2262100 0.0 1005196
16:00+18ююв1264100 0.0 1004314
19:00+17ююв4472100 0.1 1006389
22:00+15ююз4684100 1.1 1011472
11 марта, чт
чт1101:00+14юз5885100 2.9 1014514
04:00+14ююз4582100 0.9 1015465
07:00+13юз238396 1.0 1018200
10:00+14вюв3374100 0.6 1020639
13:00+14всв3367100 0.7 1021599
16:00+14в5567100 0.0 1021696
19:00+14в456799 0.0 1022650
22:00+13в457038 0.0 1024592
12 марта, пт
пт1201:00+13всв347133 0.0 1024525
04:00+12св237314 0.0 1024435
07:00+12с127517 0.0 1026343
10:00+13с127121 0.0 1027335
13:00+15всв336711 0.0 1026500
16:00+15всв44650 0.0 1026450
19:00+14всв45650 0.0 1026554
22:00+14св45680 0.0 1028546
13 марта, сб
сб1301:00+14св34700 0.0 1029464
04:00+13св34710 0.0 1028350
07:00+13св35740 0.0 1028354
10:00+14св56700 0.0 1027527
13:00+15всв79700 0.0 1026581
16:00+15всв810720 0.0 1024673
19:00+15всв811760 0.0 1023704
22:00+15всв811790 0.0 1024748